Temp
8 9 9 10 8 8 7 7 6 8 7 5 7 4 10 11 12 12 11 10 11 10 11 8 7 7 6 7 9 9 10 8 5 9 10 9 9 10 11 10 10 10 9 10
8 9 9 10 8 9 8 6 6 7 7 6 5 10 11 11 11 11 11 10 11 12 9 9 8 8 8 8 9 8 8 7 4 6 9 10 10 11 12 11 9 10 10 11
8 8 9 9 8 9 7 5 5 5 5 6 9 10 10 9 10 11 10 10 12 11 10 10 8 8 8 8 8 11 9 8 8 7 9 10 10 11 12 11 10 10 10 12
8 9 9 9 8 9 8 6 6 6 3 6 8 9 10 10 9 10 11 10 11 10 9 9 8 7 8 8 8 8 8 7 9 10 10 12 12 12 12 8 9 8 10 12
8 8 9 8 8 9 8 6 5 5 6 9 8 8 8 9 9 9 10 10 9 10 9 9 8 7 7 7 7 3 5 6 8 9 11 11 11 12 12 11 10 10 11 13
9 9 9 8 10 9 7 7 7 6 7 7 6 6 8 8 8 9 9 8 8 11 8 7 8 9 8 7 8 5 6 6 9 9 10 11 10 11 12 10 10 12 11 14
8 9 9 7 11 9 9 8 6 6 7 6 7 7 8 7 8 7 8 8 8 8 7 7 8 8 9 7 6 7 8 9 9 10 10 9 11 12 13 12 9 12 13 14
9 9 8 8 10 9 9 9 7 5 6 5 6 7 7 7 7 6 7 8 8 7 7 9 9 9 8 9 8 7 7 9 9 10 10 11 12 11 11 12 11 11 13 14
9 9 8 8 10 8 8 8 8 5 5 5 7 6 7 4 5 6 7 8 7 8 9 9 10 9 10 9 9 8 7 7 8 8 11 11 11 11 11 12 11 11 12 12
8 8 8 9 8 7 9 7 8 7 2 3 5 4 4 5 5 4 5 6 6 8 8 9 9 9 11 9 10 8 9 8 8 7 10 10 11 10 12 11 11 11 11 11
8 7 8 8 8 7 9 6 7 7 1 2 5 5 4 4 3 4 4 5 5 5 10 10 10 10 9 9 10 10 9 8 8 8 9 9 10 11 11 10 11 10 10 11
8 8 7 10 8 7 9 6 7 8 2 2 5 4 4 4 4 3 3 4 5 5 5 8 8 10 9 8 8 8 9 8 8 8 9 10 10 10 9 9 9 9 9 10
7 7 7 9 6 7 8 7 7 7 2 1 2 3 4 5 4 5 3 4 5 5 4 5 7 8 8 10 7 7 9 9 8 10 9 10 9 8 9 9 10 9 9 10
7 6 8 7 6 7 8 7 7 7 3 2 3 4 4 4 4 5 4 4 5 4 3 7 6 7 8 8 8 7 7 8 8 8 8 9 8 8 8 9 9 9 8 8
5 6 6 6 7 7 8 7 7 7 6 3 2 4 4 4 4 4 5 5 3 2 2 6 7 7 7 8 7 7 9 8 7 9 8 8 8 8 8 8 8 8 8 7
5 5 5 7 6 6 9 5 7 7 7 1 2 3 4 4 4 4 4 4 2 2 1 2 3 7 7 8 8 7 6 6 7 7 6 7 8 8 8 8 7 7 7 7
4 4 6 5 5 6 4 4 4 5 7 2 2 2 3 4 5 4 4 5 4 3 2 2 2 4 7 8 6 6 6 4 7 5 5 8 6 7 6 7 7 7 6 6
4 5 4 4 5 4 3 3 4 6 5 3 0 1 2 4 2 4 4 4 4 4 5 4 4 6 5 4 6 5 5 4 6 5 5 6 6 7 7 7 6 7 5 5
4 4 4 4 4 2 2 4 5 6 4 2 1 0 1 2 2 5 4 4 4 4 5 6 6 7 5 6 4 4 3 4 4 4 3 6 7 7 7 6 6 6 5 4
4 4 3 2 2 3 4 4 2 2 2 3 2 1 1 2 2 5 5 4 3 5 4 6 4 5 4 3 2 3 4 3 3 4 4 4 4 4 4 5 5 4 3 3
4 1 1 1 2 3 3 3 4 2 3 3 2 -0 -0 2 1 3 5 4 5 4 5 6 3 7 3 2 2 2 3 3 3 3 2 2 2 2 2 2 3 3 3 2
4 2 2 2 2 1 3 3 3 3 4 2 1 0 -0 1 3 4 3 5 4 5 6 6 6 2 2 2 3 3 2 2 3 2 2 2 1 2 2 2 2 2 2 1
4 2 1 2 1 2 4 4 3 2 2 1 1 -0 0 1 2 3 4 3 1 5 5 6 2 2 2 2 2 2 2 2 2 2 2 2 2 1 1 1 0 -0 -1 -1
3 3 2 3 -1 2 4 5 3 3 2 2 0 -2 0 1 -1 3 -2 2 2 6 5 2 -1 2 2 1 1 0 0 -1 -0 1 1 1 1 0 0 -0 -1 -2 -1 -1
3 4 5 0 1 0 1 1 2 1 2 1 -1 -1 -1 -1 -1 -0 2 4 0 2 2 -0 -2 1 1 -0 -0 -2 -3 -4 -7 -1 -0 0 -0 -1 -1 -1 -1 -2 -2 -2
1 -1 -0 1 1 1 1 1 2 1 1 -0 -1 -2 -2 -2 -2 1 -2 -2 -1 0 -2 -3 -4 -3 -4 -4 -2 -2 -2 -2 -3 -2 -0 -0 -1 -1 -2 -2 -2 -3 -3 -4
-2 -1 0 1 2 2 1 1 1 1 1 -1 -2 -0 0 -1 -2 -2 -4 -1 -1 -2 -2 -4 -3 -4 -5 -7 -5 -3 -3 -3 -2 -1 -0 -0 -1 -2 -3 -4 -3 -4 -4 -4
Height
738 747 753 757 760 765 771 773 782 777 779 788 780 796 775 773 772 772 773 775 772 771 769 782 785 788 790 785 780 779 773 781 795 772 768 770 774 768 764 773 774 774 780 773
732 742 748 753 756 761 766 771 777 778 778 788 792 771 772 771 772 773 773 776 772 770 778 778 785 783 785 783 781 783 780 790 812 796 778 770 770 763 760 765 776 766 765 767
727 737 744 749 752 757 762 768 782 780 779 776 772 770 774 776 775 775 777 779 770 772 774 774 784 785 786 785 784 775 777 782 784 792 777 767 770 763 762 766 775 769 772 758
723 734 740 744 748 753 761 763 771 768 788 778 774 774 774 775 778 778 776 777 774 775 779 778 784 790 787 784 785 785 785 792 779 773 766 761 761 763 763 784 780 786 772 762
721 730 737 740 745 751 757 762 766 769 772 767 773 776 779 777 781 781 776 777 782 775 780 784 786 791 789 790 790 802 794 796 782 773 761 763 765 761 761 765 776 774 770 754
719 727 733 736 741 749 752 754 756 759 770 773 780 783 779 781 782 780 781 783 784 774 785 789 786 786 787 790 789 798 795 797 779 772 764 761 773 761 759 771 776 766 773 754
717 725 731 733 739 745 747 748 752 761 770 774 775 775 777 780 781 785 784 783 782 784 784 784 782 784 783 792 793 793 788 784 782 772 768 779 767 757 753 760 776 767 764 757
716 722 729 732 737 743 745 746 748 756 770 773 776 777 778 780 783 787 786 782 783 781 781 777 781 781 786 784 787 793 794 784 780 771 771 768 760 765 765 760 769 766 761 759
716 722 729 733 737 742 744 746 747 750 767 779 771 778 779 787 788 788 784 782 781 780 776 776 774 784 774 782 783 790 793 792 788 786 765 760 772 767 763 761 771 765 762 759
714 721 728 733 736 740 743 745 746 749 772 778 775 781 784 782 786 792 789 787 785 779 777 775 781 783 771 782 774 784 783 787 786 792 773 773 769 767 762 767 775 765 762 758
714 719 728 731 736 740 741 746 747 749 771 779 777 778 781 784 788 792 792 792 790 789 774 773 774 773 781 779 773 772 780 787 785 780 781 780 769 765 767 772 768 768 763 757
713 721 728 730 737 740 741 746 749 750 760 780 780 782 783 784 787 790 791 793 791 793 791 785 784 777 779 784 785 781 780 781 786 783 783 772 771 771 773 771 771 770 766 762
714 722 727 731 738 740 741 746 749 753 769 782 784 786 787 786 787 788 793 793 791 792 794 792 791 786 786 778 793 788 780 777 783 776 779 776 777 777 774 773 771 771 769 765
719 724 727 733 739 740 742 744 748 751 760 780 791 788 788 789 789 789 789 790 791 793 794 790 792 787 785 785 787 791 787 781 781 783 779 777 779 779 778 776 774 773 772 772
723 726 730 735 738 742 745 746 749 751 755 777 790 788 790 791 792 791 792 792 794 799 800 793 790 789 789 785 790 789 782 783 790 783 785 783 780 777 777 776 776 776 775 776
722 727 732 736 742 746 747 751 753 752 754 768 792 792 792 793 793 794 795 795 797 800 803 802 799 789 789 787 785 788 790 788 785 787 785 781 779 779 778 777 777 777 777 777
722 729 731 741 745 746 748 752 752 753 755 766 790 795 793 794 795 796 799 798 799 799 801 803 801 794 788 785 791 791 790 791 786 786 784 781 781 782 779 778 778 777 777 777
722 728 737 744 748 750 752 754 754 755 758 762 789 798 797 794 797 797 797 798 798 798 797 797 797 790 792 796 787 790 791 790 786 787 786 784 781 780 780 780 779 778 778 777
722 732 743 748 750 752 754 756 758 758 763 773 778 794 802 793 796 794 797 795 796 797 796 792 791 785 793 783 789 790 792 791 790 788 787 782 780 780 778 776 775 777 778 778
725 738 745 752 753 754 756 760 763 763 765 767 776 780 792 791 795 793 794 795 797 792 794 789 796 788 785 786 788 788 789 791 791 788 786 785 782 781 781 780 779 777 776 777
724 735 746 752 754 755 758 764 764 770 771 768 775 781 789 789 798 796 792 793 792 799 790 788 796 774 786 786 787 788 789 790 789 789 788 787 786 784 782 779 778 779 778 775
715 723 742 752 754 759 759 763 766 765 762 770 776 780 784 788 787 790 796 791 793 789 786 786 780 788 783 784 785 787 788 787 787 787 785 783 782 781 781 780 777 777 776 777
713 726 740 744 756 759 749 754 760 764 761 767 771 781 782 786 787 791 791 796 808 785 788 779 787 784 783 784 785 785 785 785 784 784 781 780 779 778 777 776 776 774 775 774
712 722 739 736 755 742 733 731 738 747 752 760 768 780 781 785 794 790 811 796 795 782 783 790 789 782 782 783 783 784 783 782 782 780 779 778 775 774 773 774 773 774 772 772
711 713 716 737 735 738 739 739 741 747 752 759 771 779 783 792 797 796 793 787 805 794 788 788 785 780 781 782 782 782 782 780 779 777 775 773 772 771 771 771 771 771 772 770
712 723 730 730 731 741 742 743 745 747 752 760 767 783 792 797 798 793 808 809 804 788 787 783 783 783 782 781 780 779 778 777 776 774 771 769 768 768 768 769 769 768 768 770
723 726 721 723 724 729 738 741 746 747 752 765 773 780 782 788 800 800 803 794 785 780 779 778 778 779 779 778 777 776 775 774 773 770 768 767 766 765 765 765 766 766 765 766
Wind_Speed
32 26 21 15 12 11 19 3 1 8 10 2 1 2 4 3 1 2 2 2 4 3 5 4 2 2 1 4 5 4 3 0 2 1 2 3 3 1 2 3 0 2 2 3
32 26 22 17 15 22 9 4 3 5 4 3 2 2 4 2 1 1 2 3 5 6 3 2 3 3 4 5 4 2 5 3 3 7 4 1 2 2 1 3 3 5 2 3
32 27 22 19 17 23 5 3 2 1 1 2 2 2 2 3 2 2 2 1 3 3 3 6 2 2 1 5 3 7 4 2 2 2 5 1 2 2 2 4 2 5 3 4
32 27 22 20 17 20 10 1 3 4 2 2 4 3 2 1 3 0 1 2 3 3 2 2 2 1 2 1 6 5 3 1 1 5 6 2 2 2 4 3 1 2 5 7
31 27 21 19 17 21 6 4 4 2 2 3 6 3 3 2 3 1 4 2 4 4 2 2 1 3 0 1 3 3 3 2 3 4 4 4 2 4 1 5 0 4 5 2
30 27 23 20 19 22 4 3 2 4 3 3 4 4 4 4 4 1 4 2 1 1 2 2 4 2 3 1 1 1 2 2 4 3 4 2 3 3 4 5 1 6 3 4
31 26 23 20 18 22 4 5 4 4 2 3 4 5 3 5 3 3 2 1 2 1 3 4 1 4 5 4 3 2 2 1 1 2 3 2 2 5 3 8 8 6 10 3
29 24 22 20 20 21 6 7 3 3 3 4 5 7 4 4 4 3 3 2 2 2 2 2 4 2 1 2 3 5 4 2 2 1 1 3 2 5 4 3 2 4 6 7
29 25 20 18 19 20 12 10 5 4 5 1 2 4 3 3 3 2 2 1 5 2 1 1 1 2 2 1 1 1 3 5 3 3 2 2 2 5 4 2 1 6 5 4
31 25 18 17 18 19 16 8 7 6 4 3 4 3 4 3 3 3 3 3 5 1 1 3 3 1 1 1 0 2 1 2 2 3 1 2 3 7 3 2 1 9 5 6
32 25 23 20 16 16 10 9 7 5 3 3 4 3 3 2 3 3 2 2 3 3 2 2 1 1 1 1 3 1 2 1 1 1 3 1 4 3 3 1 3 4 6 3
32 27 26 18 17 13 15 7 16 16 5 4 9 13 9 7 4 3 2 4 2 0 1 2 1 2 1 1 1 5 1 2 2 3 3 1 3 3 2 1 2 3 4 4
33 29 25 19 18 16 8 20 24 15 4 4 4 4 8 7 8 5 3 2 1 2 2 2 1 1 2 1 1 3 5 2 0 3 6 4 5 4 3 4 3 5 5 7
30 28 24 22 16 12 22 17 13 7 4 4 1 5 6 6 7 7 7 4 3 4 2 2 1 1 2 2 2 0 4 3 3 2 4 3 4 3 3 3 6 6 7 7
29 27 25 22 16 16 21 18 11 7 5 4 3 6 3 5 6 9 6 6 3 2 2 2 2 0 0 1 2 1 4 1 1 1 2 1 3 1 2 3 4 4 4 6
33 29 26 19 17 20 11 3 3 7 6 4 3 2 3 7 9 10 7 4 3 2 1 1 3 3 0 1 1 2 3 5 4 2 4 3 5 2 3 2 3 3 4 5
34 28 24 21 20 9 6 2 4 10 6 3 3 2 1 8 5 3 2 2 1 1 1 0 2 2 3 2 2 2 5 6 3 6 6 3 5 3 4 3 2 3 5 5
34 29 24 18 14 11 7 9 10 9 6 3 4 1 2 4 2 2 1 2 1 1 1 1 2 1 2 2 2 2 3 6 1 8 7 5 5 3 1 1 2 1 1 2
35 31 24 12 3 2 6 11 7 8 5 3 3 5 4 3 1 2 1 1 1 1 1 2 1 2 3 3 3 1 2 3 6 8 8 4 4 4 3 2 2 2 2 1
40 26 4 2 2 22 14 4 3 4 3 2 2 3 2 3 2 3 3 1 1 2 3 1 1 3 2 3 3 2 2 4 4 6 5 7 5 5 6 6 4 2 2 4
10 3 2 10 13 3 2 2 2 1 1 1 2 3 4 1 3 3 1 2 1 1 2 2 2 3 3 5 2 2 1 3 4 4 4 6 6 6 5 5 5 6 6 3
16 22 18 7 2 2 3 1 1 2 5 2 4 2 3 1 2 2 2 3 2 3 2 2 3 3 3 4 3 2 2 1 5 6 6 8 9 9 7 7 7 5 5 5
15 6 4 3 0 2 7 7 3 2 4 4 3 3 3 2 2 2 2 4 4 1 1 3 3 3 4 4 2 1 2 3 4 7 9 10 10 9 8 8 5 3 5 5
3 5 6 6 3 4 3 3 5 3 5 8 4 2 3 2 3 3 4 4 3 3 3 5 2 6 4 3 1 1 4 5 6 6 9 12 10 9 10 10 8 7 7 7
3 4 6 4 3 3 2 3 4 2 7 5 3 3 3 2 3 2 2 4 3 5 4 3 3 4 4 2 2 4 5 5 4 11 8 12 11 10 12 11 9 7 6 6
3 4 4 2 5 2 2 4 6 1 5 3 3 3 3 1 4 4 5 6 6 4 3 3 3 2 2 3 3 5 9 10 12 13 12 12 11 9 11 10 10 8 5 4
3 2 3 2 4 5 3 3 2 4 3 3 3 4 4 3 3 2 3 4 3 3 2 2 4 4 3 4 5 9 12 13 14 13 12 12 9 6 7 7 9 8 6 5
Wind_Direction
195 197 197 195 190 168 169 185 132 169 160 67 237 133 187 120 211 205 268 219 292 334 338 26 98 70 2 263 289 328 298 37 11 4 49 121 129 357 9 100 116 226 199 277
193 195 194 195 180 168 162 163 139 169 190 137 266 197 129 120 154 27 334 23 349 338 316 83 40 68 306 315 331 35 322 352 8 344 346 78 80 216 8 86 79 230 122 270
188 192 191 194 182 180 192 106 100 346 138 208 139 117 94 131 133 154 80 279 6 345 20 47 65 93 308 349 35 346 30 334 153 195 252 158 124 194 196 101 277 334 11 358
185 190 189 191 183 183 190 114 215 184 201 270 136 108 108 124 121 255 181 224 47 345 351 121 63 48 318 16 7 5 58 302 295 287 291 285 26 193 212 104 165 77 296 325
179 187 186 187 176 172 196 142 140 28 131 110 122 154 169 128 83 164 164 204 1 301 67 60 14 21 179 323 22 41 15 294 317 295 253 223 261 310 265 125 330 280 283 294
181 187 183 177 173 170 158 165 105 110 170 159 110 196 159 136 126 165 70 91 289 204 100 311 279 294 202 190 293 233 85 17 342 298 341 159 339 266 199 99 287 319 350 360
184 183 189 180 186 184 162 168 128 101 153 118 159 137 119 137 133 132 28 286 257 194 294 274 193 224 167 148 256 211 217 301 271 286 48 36 286 1 89 153 195 175 292 30
184 183 190 182 188 188 187 164 146 123 103 125 96 129 133 144 121 145 190 280 219 295 313 178 141 131 204 187 233 218 266 299 289 317 332 149 48 9 0 48 86 14 225 227
184 184 184 183 185 187 193 156 128 105 119 292 116 130 130 142 146 93 226 77 292 274 287 62 329 91 109 110 122 153 225 291 330 350 342 70 308 303 325 313 94 330 330 315
184 175 174 173 174 184 172 141 138 95 104 323 50 129 158 118 107 129 58 345 344 266 345 52 39 9 219 111 309 208 222 230 247 288 355 67 316 300 340 133 248 312 292 286
179 173 171 164 170 172 159 117 101 105 96 4 53 48 91 66 79 127 259 62 344 4 105 103 125 101 27 327 356 53 133 144 268 339 77 68 344 359 64 221 294 350 333 356
176 176 171 169 171 175 139 105 100 101 87 139 97 81 74 83 78 135 22 149 76 279 97 49 118 143 254 188 328 344 19 170 216 147 228 295 35 122 55 23 94 356 0 67
178 170 165 164 166 165 153 128 117 95 90 52 52 54 80 78 61 50 119 332 160 80 180 88 67 122 360 48 291 295 357 11 4 74 358 1 52 36 47 12 64 28 5 60
173 165 159 158 161 153 146 137 132 109 120 108 275 125 66 76 71 72 61 114 65 95 38 100 114 131 19 49 276 102 226 8 334 20 2 82 63 35 8 52 37 50 39 35
161 159 157 155 156 155 146 121 106 94 115 128 143 115 93 89 88 77 77 66 76 56 83 142 156 187 289 245 62 337 331 17 73 19 317 243 277 277 315 65 51 31 105 73
154 155 153 151 151 153 140 52 135 106 102 100 109 146 113 95 98 86 69 52 56 67 104 352 315 316 343 290 198 34 8 10 21 5 309 236 264 36 8 72 68 51 84 107
151 149 139 147 157 157 71 127 141 141 111 90 95 80 24 138 119 109 90 49 71 100 137 321 240 290 193 257 199 86 13 345 37 31 0 72 41 337 0 61 100 103 102 97
148 139 140 137 128 103 71 94 130 114 84 74 106 67 69 175 151 124 173 159 204 204 300 251 226 241 166 251 140 80 14 315 36 4 337 283 275 250 19 354 324 266 195 167
144 139 133 115 68 85 125 118 95 68 84 123 105 134 189 163 144 125 178 223 135 130 248 227 203 213 224 213 158 210 272 344 325 327 314 334 348 344 318 298 293 290 246 221
136 130 127 96 80 124 115 74 32 18 354 46 94 117 129 126 160 147 146 164 197 209 223 229 172 255 121 167 179 156 347 304 316 320 335 351 336 340 330 329 320 312 286 301
145 116 93 129 136 111 50 95 128 177 46 97 137 126 128 298 117 143 214 180 199 186 219 173 251 249 208 167 169 176 183 325 297 295 282 290 288 289 295 302 288 285 287 265
158 117 117 136 122 55 113 141 97 187 187 143 118 149 130 118 118 119 207 171 173 205 173 198 244 246 153 141 145 175 197 286 305 298 284 276 278 284 285 291 286 262 262 261
109 86 108 143 57 113 181 173 211 171 169 164 143 108 122 88 69 88 145 168 217 125 205 234 225 193 160 166 155 240 291 297 298 308 300 283 270 268 258 270 278 270 273 243
117 139 135 197 182 232 184 162 136 145 125 124 115 86 112 119 76 126 138 229 76 205 234 230 220 188 181 174 192 284 287 291 280 283 298 299 269 262 263 251 250 245 238 241
122 131 179 181 139 58 73 84 94 92 128 112 93 62 86 55 98 156 146 163 236 201 226 226 209 173 174 210 255 277 283 281 270 280 284 289 266 257 261 253 245 246 250 240
79 69 94 125 85 96 67 100 115 89 127 96 67 105 80 93 141 158 211 143 214 241 211 210 164 197 220 226 268 292 300 299 293 290 285 285 265 260 262 263 239 232 232 247
59 27 36 85 75 123 125 130 144 132 82 123 122 106 174 97 113 215 206 205 217 198 216 193 184 193 223 230 268 302 312 305 301 293 295 291 289 265 233 234 241 230 231 241